Weather History for KDLF - February, 2013

Change the Weather History Date:

Friday, February 22, 2013

  Actual Average Record
Temperature  
Mean Temperature 58 °F -  
Max Temperature 75 °F 70 °F 86 °F (1998)
Min Temperature 41 °F 47 °F 27 °F (2009)
Degree Days  
Heating Degree Days 7    
Growing Degree Days 8 (Base 50)    
Moisture  
Dew Point 24 °F    
Average Humidity 28    
Maximum Humidity 42    
Minimum Humidity 17    
Precipitation  
Precipitation 0.00 in - - ()
Sea Level Pressure  
Sea Level Pressure 29.89 in    
Wind  
Wind Speed 7 mph (ENE)    
Max Wind Speed 12 mph    
Max Gust Speed 22 mph    
Visibility 10 miles    
Events      
Averages and records for this station are not official NWS values.
T = Trace of Precipitation, MM = Missing Value Source: NWS Daily Summary

Daily Weather History Graph

Daily Weather History Graph

Search for Another Location

Airport or City:

Trip Planner

Search our weather history database for the weather conditions in past years. The results will help you decide how hot, cold, wet, or windy it might be!

Date:

Astronomy

Feb. 22, 2013 Rise Set
Actual Time 7:15 AM CST 6:38 PM CST
Civil Twilight 6:51 AM CST 7:02 PM CST
Nautical Twilight 6:23 AM CST 7:29 PM CST
Astronomical Twilight 5:56 AM CST 7:57 PM CST
Moon 3:59 PM CST (2/22) 4:52 AM CST (2/22)
Length of Visible Light 12h 10m
Length of Day
11h 22m
Waxing Gibbous, 90% of the Moon is Illuminated
Feb 22
Waxing Gibbous
Feb 25
Full
Mar 4
Last Quarter
Mar 11
New
Mar 19
First Quarter

Hourly Weather History & Observations

Time (CST) Temp. Windchill Dew Point Humidity Pressure Visibility Wind Dir Wind Speed Gust Speed Precip Events Conditions
12:55 AM 50.2 °F - 15.1 °F 25% 29.86 in 10.0 mi North 8.1 mph - N/A   Clear
1:55 AM 45.5 °F 40.8 °F 17.6 °F 33% 29.88 in 10.0 mi North 9.2 mph - N/A   Clear
2:55 AM 47.1 °F - 18.1 °F 32% 29.86 in 10.0 mi North 9.2 mph - N/A   Clear
3:55 AM 45.5 °F 41.8 °F 18.5 °F 34% 29.86 in 10.0 mi North 6.9 mph - N/A   Clear
4:55 AM 43.5 °F 40.1 °F 19.0 °F 38% 29.87 in 10.0 mi North 5.8 mph - N/A   Clear
5:55 AM 42.3 °F 39.4 °F 20.3 °F 42% 29.89 in 10.0 mi WNW 4.6 mph - N/A   Clear
6:55 AM 41.2 °F 36.6 °F 19.8 °F 42% 29.91 in 10.0 mi NNW 6.9 mph - N/A   Clear
7:55 AM 43.3 °F 38.6 °F 20.8 °F 41% 29.94 in 10.0 mi NNW 8.1 mph - N/A   Clear
8:55 AM 56.8 °F - 20.7 °F 25% 29.94 in 10.0 mi NE 5.8 mph - N/A   Clear
9:55 AM 60.1 °F - 23.5 °F 25% 29.96 in 10.0 mi ESE 3.5 mph - N/A   Clear
10:55 AM 66.0 °F - 24.4 °F 21% 29.95 in 10.0 mi ESE 4.6 mph - N/A   Clear
11:55 AM 68.0 °F - 25.0 °F 20% 29.94 in 10.0 mi SSW 8.1 mph - N/A   Clear
12:55 PM 72.1 °F - 27.9 °F 19% 29.89 in 10.0 mi South 11.5 mph 20.7 mph N/A   Clear
1:55 PM 73.8 °F - 30.4 °F 20% 29.86 in 10.0 mi South 11.5 mph 19.6 mph N/A   Clear
2:55 PM 74.7 °F - 27.5 °F 17% 29.83 in 10.0 mi SSW 8.1 mph - N/A   Clear
3:55 PM 75.0 °F - 26.4 °F 17% 29.82 in 10.0 mi South 6.9 mph - N/A   Partly Cloudy
4:55 PM 74.8 °F - 27.1 °F 17% 29.83 in 10.0 mi South 9.2 mph - N/A   Clear
5:55 PM 73.2 °F - 28.4 °F 19% 29.85 in 10.0 mi Calm Calm - N/A   Clear
6:55 PM 70.3 °F - 26.8 °F 20% 29.87 in 10.0 mi Calm Calm - N/A   Clear
7:55 PM 62.1 °F - 28.2 °F 28% 29.89 in 10.0 mi East 4.6 mph - N/A   Clear
8:55 PM 63.5 °F - 30.4 °F 29% 29.92 in 10.0 mi ENE 11.5 mph 21.9 mph N/A   Clear
9:55 PM 58.3 °F - 30.9 °F 35% 29.94 in 10.0 mi ENE 9.2 mph - N/A   Clear
10:55 PM 54.0 °F - 30.0 °F 40% 29.96 in 10.0 mi ENE 5.8 mph - N/A   Clear
11:55 PM 52.5 °F - 30.2 °F 42% 29.95 in 10.0 mi ENE 5.8 mph - N/A   Clear